| time (UTC) | temp F | wind direction | speed MPH | gust MPH | rain 1hr in | rain 24hr in | rain mn in | humidity % | barometer mb |
| 20260506004522 | 61 | 295 | 2.0 | 4.0 | 0.00 | 0.01 | 0.01 | 70 | 1016.0 |
| 20260506003542 | 61 | 314 | 2.0 | 8.0 | 0.00 | 0.01 | 0.01 | 71 | 1016.1 |
| 20260506002526 | 61 | 357 | 1.0 | 4.0 | 0.00 | 0.01 | 0.01 | 71 | 1016.0 |
| 20260506001527 | 61 | 320 | 2.0 | 4.0 | 0.00 | 0.01 | 0.01 | 70 | 1016.0 |
| 20260506000550 | 61 | 269 | 3.0 | 7.0 | 0.00 | 0.01 | 0.01 | 69 | 1016.1 |
| 20260505235556 | 61 | 337 | 2.0 | 7.0 | 0.00 | 0.01 | 0.01 | 69 | 1016.1 |
| 20260505234543 | 61 | 354 | 2.0 | 6.0 | 0.00 | 0.01 | 0.01 | 69 | 1016.2 |
| 20260505233527 | 61 | 318 | 2.0 | 6.0 | 0.00 | 0.01 | 0.01 | 70 | 1016.1 |
| 20260505232531 | 61 | 4 | 3.0 | 9.0 | 0.00 | 0.01 | 0.01 | 70 | 1016.6 |
| 20260505231609 | 61 | 35 | 3.0 | 7.0 | 0.00 | 0.01 | 0.01 | 71 | 1016.3 |
| 20260505230530 | 61 | 285 | 3.0 | 8.0 | 0.00 | 0.01 | 0.01 | 69 | 1016.2 |
| 20260505225537 | 61 | 280 | 4.0 | 10.0 | 0.00 | 0.01 | 0.01 | 70 | 1016.2 |
| 20260505224520 | 60 | 300 | 3.0 | 8.0 | 0.00 | 0.01 | 0.01 | 71 | 1016.3 |
| 20260505223523 | 61 | 272 | 4.0 | 8.0 | 0.00 | 0.01 | 0.01 | 70 | 1016.2 |
| 20260505222546 | 61 | 269 | 4.0 | 8.0 | 0.00 | 0.01 | 0.01 | 69 | 1016.2 |
| 20260505221529 | 61 | 279 | 3.0 | 7.0 | 0.00 | 0.01 | 0.01 | 70 | 1016.3 |
| 20260505220535 | 62 | 268 | 3.0 | 8.0 | 0.00 | 0.01 | 0.01 | 67 | 1016.3 |
| 20260505215518 | 63 | 282 | 2.0 | 8.0 | 0.00 | 0.01 | 0.01 | 67 | 1016.4 |
| 20260505214643 | 62 | 275 | 3.0 | 8.0 | 0.00 | 0.01 | 0.01 | 69 | 1016.5 |
| 20260505213528 | 62 | 319 | 2.0 | 8.0 | 0.00 | 0.01 | 0.01 | 70 | 1016.5 |
| 20260505212535 | 61 | 274 | 3.0 | 8.0 | 0.00 | 0.01 | 0.01 | 72 | 1016.5 |
| 20260505211520 | 61 | 278 | 3.0 | 7.0 | 0.00 | 0.01 | 0.01 | 73 | 1016.4 |
| 20260505210522 | 60 | 277 | 3.0 | 6.0 | 0.00 | 0.01 | 0.01 | 74 | 1016.4 |
| 20260505205545 | 60 | 271 | 2.0 | 6.0 | 0.00 | 0.01 | 0.01 | 75 | 1016.4 |
| 20260505204528 | 59 | 2 | 2.0 | 6.0 | 0.00 | 0.01 | 0.01 | 77 | 1016.5 |
| 20260505203535 | 58 | 302 | 2.0 | 7.0 | 0.00 | 0.01 | 0.01 | 79 | 1016.7 |
| 20260505202520 | 58 | 275 | 2.0 | 7.0 | 0.00 | 0.01 | 0.01 | 78 | 1016.7 |
| 20260505201525 | 58 | 283 | 3.0 | 6.0 | 0.00 | 0.01 | 0.01 | 80 | 1016.6 |
| 20260505200528 | 58 | 275 | 3.0 | 7.0 | 0.00 | 0.01 | 0.01 | 79 | 1016.5 |
| 20260505195533 | 58 | 275 | 2.0 | 6.0 | 0.00 | 0.01 | 0.01 | 78 | 1016.5 |
| 20260505194517 | 58 | 291 | 2.0 | 4.0 | 0.00 | 0.01 | 0.01 | 79 | 1016.5 |
| 20260505193522 | 58 | 267 | 2.0 | 6.0 | 0.00 | 0.01 | 0.01 | 78 | 1016.3 |
| 20260505192546 | 59 | 255 | 2.0 | 4.0 | 0.00 | 0.01 | 0.01 | 79 | 1016.4 |
| 20260505191529 | 58 | 273 | 2.0 | 4.0 | 0.00 | 0.01 | 0.01 | 78 | 1016.3 |
| 20260505190555 | 58 | 300 | 2.0 | 4.0 | 0.00 | 0.01 | 0.01 | 81 | 1016.2 |
| 20260505185536 | 57 | 218 | 2.0 | 4.0 | 0.00 | 0.01 | 0.01 | 82 | 1016.3 |
| 20260505184535 | 57 | 294 | 1.0 | 2.0 | 0.00 | 0.01 | 0.01 | 84 | 1016.4 |
| 20260505183520 | 56 | 301 | 1.0 | 3.0 | 0.00 | 0.01 | 0.01 | 86 | 1016.5 |
| 20260505182522 | 56 | 285 | 2.0 | 6.0 | 0.00 | 0.01 | 0.01 | 86 | 1016.4 |
| 20260505181525 | 57 | 287 | 2.0 | 4.0 | 0.00 | 0.01 | 0.01 | 86 | 1016.2 |
| 20260505180530 | 56 | 271 | 2.0 | 4.0 | 0.00 | 0.01 | 0.01 | 87 | 1016.2 |
| 20260505175534 | 57 | 290 | 2.0 | 3.0 | 0.00 | 0.01 | 0.01 | 86 | 1016.1 |
| 20260505174516 | 57 | 232 | 1.0 | 3.0 | 0.00 | 0.01 | 0.01 | 86 | 1016.1 |
| 20260505173522 | 57 | 288 | 1.0 | 3.0 | 0.00 | 0.01 | 0.01 | 86 | 1016.0 |
| 20260505172525 | 57 | 293 | 1.0 | 4.0 | 0.00 | 0.01 | 0.01 | 86 | 1015.9 |
| 20260505171532 | 56 | 268 | 1.0 | 3.0 | 0.00 | 0.01 | 0.01 | 86 | 1015.8 |
| 20260505170536 | 56 | 184 | 1.0 | 3.0 | 0.00 | 0.01 | 0.01 | 86 | 1015.7 |
| 20260505165541 | 56 | 243 | 1.0 | 3.0 | 0.00 | 0.01 | 0.01 | 88 | 1015.7 |
| 20260505164546 | 56 | 228 | 1.0 | 2.0 | 0.00 | 0.01 | 0.01 | 88 | 1015.7 |
| 20260505163529 | 56 | 212 | 1.0 | 3.0 | 0.00 | 0.01 | 0.01 | 88 | 1015.7 |
| 20260505162534 | 56 | 0.0 | 0.0 | 0.00 | 0.01 | 0.01 | 84 | 1015.8 | |
| 20260505161541 | 56 | 203 | 1.0 | 3.0 | 0.00 | 0.01 | 0.01 | 85 | 1015.7 |
| 20260505160525 | 56 | 114 | 1.0 | 3.0 | 0.00 | 0.01 | 0.01 | 86 | 1015.7 |
| 20260505152524 | 55 | 146 | 0.0 | 2.0 | 0.00 | 0.01 | 0.01 | 93 | 1015.7 |
| 20260505151530 | 55 | 0.0 | 0.0 | 0.00 | 0.01 | 0.01 | 95 | 1015.6 | |
| 20260505150530 | 55 | 0.0 | 0.0 | 0.00 | 0.01 | 0.01 | 96 | 1015.6 | |
| 20260505140520 | 53 | 0.0 | 0.0 | 0.00 | 0.01 | 0.01 | 98 | 1015.5 | |
| 20260505124525 | 53 | 124 | 0.0 | 1.0 | 0.00 | 0.01 | 0.01 | 98 | 1014.9 |
| 20260505123551 | 54 | 0.0 | 0.0 | 0.00 | 0.01 | 0.01 | 98 | 1014.9 | |
| 20260505122535 | 53 | 0.0 | 0.0 | 0.01 | 0.01 | 0.01 | 98 | 1014.9 | |
| 20260505121520 | 53 | 0.0 | 0.0 | 0.01 | 0.01 | 0.01 | 97 | 1014.7 | |
| 20260505120523 | 53 | 0.0 | 0.0 | 0.01 | 0.01 | 0.01 | 97 | 1014.7 | |
| 20260505115528 | 53 | 0.0 | 0.0 | 0.01 | 0.01 | 0.01 | 97 | 1014.7 | |
| 20260505114532 | 53 | 0.0 | 0.0 | 0.01 | 0.01 | 0.01 | 97 | 1014.7 | |
| 20260505113535 | 54 | 0.0 | 0.0 | 0.01 | 0.01 | 0.01 | 96 | 1014.8 | |
| 20260505112517 | 54 | 0.0 | 0.0 | 0.00 | 0.00 | 0.00 | 96 | 1014.8 | |
| 20260505111521 | 54 | 0.0 | 0.0 | 0.00 | 0.01 | 0.00 | 96 | 1014.7 | |
| 20260505110523 | 54 | 0.0 | 0.0 | 0.00 | 0.01 | 0.00 | 95 | 1014.7 | |
| 20260505101536 | 55 | 178 | 2.0 | 4.0 | 0.00 | 0.01 | 0.00 | 92 | 1014.5 |
| 20260505100518 | 55 | 181 | 2.0 | 4.0 | 0.00 | 0.02 | 0.00 | 92 | 1014.9 |
| 20260505095533 | 55 | 188 | 1.0 | 3.0 | 0.00 | 0.02 | 0.00 | 92 | 1014.7 |
| 20260505094516 | 55 | 227 | 0.0 | 2.0 | 0.00 | 0.02 | 0.00 | 92 | 1014.8 |
| 20260505093521 | 55 | 189 | 0.0 | 1.0 | 0.00 | 0.02 | 0.00 | 92 | 1014.6 |
| 20260505092525 | 55 | 163 | 0.0 | 2.0 | 0.00 | 0.02 | 0.00 | 92 | 1014.6 |
| 20260505091534 | 55 | 168 | 1.0 | 2.0 | 0.00 | 0.02 | 0.00 | 92 | 1014.4 |
| 20260505090541 | 55 | 195 | 1.0 | 2.0 | 0.00 | 0.02 | 0.00 | 92 | 1014.3 |
| 20260505085523 | 55 | 160 | 1.0 | 4.0 | 0.00 | 0.02 | 0.00 | 91 | 1014.3 |
| 20260505084527 | 55 | 139 | 1.0 | 3.0 | 0.00 | 0.02 | 0.00 | 91 | 1014.3 |
| 20260505083550 | 55 | 167 | 1.0 | 2.0 | 0.00 | 0.03 | 0.00 | 92 | 1014.4 |
| 20260505082549 | 55 | 160 | 2.0 | 6.0 | 0.00 | 0.03 | 0.00 | 91 | 1014.5 |
| 20260505081517 | 55 | 181 | 1.0 | 2.0 | 0.00 | 0.03 | 0.00 | 91 | 1014.5 |
| 20260505080545 | 55 | 177 | 2.0 | 4.0 | 0.00 | 0.03 | 0.00 | 91 | 1014.6 |
| 20260505075529 | 55 | 185 | 1.0 | 2.0 | 0.00 | 0.03 | 0.00 | 91 | 1014.7 |
| 20260505074535 | 55 | 164 | 1.0 | 2.0 | 0.00 | 0.03 | 0.00 | 92 | 1014.6 |
| 20260505073522 | 55 | 183 | 1.0 | 2.0 | 0.00 | 0.03 | 0.00 | 92 | 1014.7 |
| 20260505072543 | 55 | 165 | 1.0 | 2.0 | 0.00 | 0.03 | 0.00 | 92 | 1014.8 |
| 20260505071522 | 55 | 149 | 0.0 | 2.0 | 0.00 | 0.03 | 0.00 | 93 | 1014.7 |
| 20260505070525 | 55 | 178 | 1.0 | 3.0 | 0.00 | 0.03 | 0.00 | 93 | 1014.7 |
| 20260505065528 | 55 | 144 | 1.0 | 6.0 | 0.00 | 0.04 | 0.04 | 93 | 1014.7 |
| 20260505064534 | 55 | 182 | 1.0 | 3.0 | 0.00 | 0.04 | 0.04 | 93 | 1014.7 |
| 20260505063603 | 55 | 169 | 0.0 | 2.0 | 0.00 | 0.04 | 0.04 | 93 | 1014.7 |
| 20260505062528 | 55 | 185 | 0.0 | 1.0 | 0.00 | 0.04 | 0.04 | 93 | 1014.7 |
| 20260505061555 | 55 | 157 | 1.0 | 2.0 | 0.00 | 0.04 | 0.04 | 93 | 1014.8 |
| 20260505060518 | 55 | 175 | 1.0 | 3.0 | 0.00 | 0.04 | 0.04 | 93 | 1014.9 |
| 20260505055525 | 55 | 221 | 0.0 | 2.0 | 0.00 | 0.04 | 0.04 | 93 | 1014.8 |
| 20260505054531 | 55 | 166 | 1.0 | 3.0 | 0.00 | 0.04 | 0.04 | 93 | 1014.9 |
| 20260505053532 | 55 | 212 | 1.0 | 3.0 | 0.00 | 0.04 | 0.04 | 92 | 1015.3 |
| 20260505052528 | 55 | 255 | 2.0 | 4.0 | 0.00 | 0.04 | 0.04 | 91 | 1014.9 |
| 20260505051533 | 55 | 226 | 1.0 | 4.0 | 0.00 | 0.04 | 0.04 | 91 | 1015.0 |
| 20260505050534 | 56 | 202 | 1.0 | 3.0 | 0.00 | 0.04 | 0.04 | 91 | 1014.9 |
| 20260505041530 | 55 | 226 | 1.0 | 3.0 | 0.00 | 0.04 | 0.04 | 91 | 1014.4 |
| 20260505040555 | 56 | 202 | 1.0 | 3.0 | 0.00 | 0.04 | 0.04 | 91 | 1014.4 |
| 20260505035524 | 56 | 167 | 1.0 | 2.0 | 0.00 | 0.04 | 0.04 | 91 | 1014.2 |
| 20260505034531 | 56 | 169 | 2.0 | 3.0 | 0.00 | 0.04 | 0.04 | 90 | 1014.2 |
| 20260505033613 | 56 | 213 | 1.0 | 2.0 | 0.00 | 0.04 | 0.04 | 90 | 1014.1 |
| 20260505032516 | 56 | 182 | 1.0 | 3.0 | 0.00 | 0.04 | 0.04 | 90 | 1014.0 |
| 20260505031525 | 56 | 223 | 0.0 | 2.0 | 0.00 | 0.04 | 0.04 | 89 | 1013.9 |
| 20260505030530 | 56 | 245 | 0.0 | 2.0 | 0.00 | 0.04 | 0.04 | 89 | 1013.8 |
| 20260505025535 | 56 | 203 | 0.0 | 3.0 | 0.00 | 0.04 | 0.04 | 89 | 1013.7 |
| 20260505024519 | 56 | 241 | 1.0 | 3.0 | 0.00 | 0.04 | 0.04 | 88 | 1013.7 |
| 20260505023522 | 56 | 265 | 1.0 | 3.0 | 0.00 | 0.04 | 0.04 | 88 | 1013.7 |
| 20260505022530 | 56 | 204 | 1.0 | 2.0 | 0.00 | 0.04 | 0.04 | 88 | 1013.5 |
| 20260505021529 | 56 | 242 | 1.0 | 2.0 | 0.00 | 0.04 | 0.04 | 88 | 1013.5 |
| 20260505020535 | 56 | 197 | 2.0 | 6.0 | 0.00 | 0.04 | 0.04 | 87 | 1013.5 |
| 20260505015522 | 57 | 231 | 2.0 | 6.0 | 0.00 | 0.04 | 0.04 | 86 | 1013.7 |
| 20260505014525 | 57 | 275 | 1.0 | 2.0 | 0.00 | 0.04 | 0.04 | 86 | 1013.7 |
| 20260505013529 | 57 | 221 | 2.0 | 3.0 | 0.00 | 0.04 | 0.04 | 85 | 1013.8 |
| 20260505012531 | 57 | 213 | 1.0 | 4.0 | 0.00 | 0.04 | 0.04 | 85 | 1013.8 |
| 20260505011534 | 58 | 275 | 2.0 | 6.0 | 0.00 | 0.04 | 0.04 | 83 | 1014.1 |
| 20260505010519 | 58 | 264 | 1.0 | 4.0 | 0.00 | 0.04 | 0.04 | 84 | 1014.2 |
| 20260505005544 | 58 | 247 | 2.0 | 6.0 | 0.00 | 0.04 | 0.04 | 82 | 1014.3 |